Time,TemperatureF,DewpointF,PressureIn,WindDirection,WindDirectionDegrees,WindSpeedMPH,WindSpeedGustMPH,Humidity,HourlyPrecipIn,Conditions,Clouds,dailyrainin,SoftwareType,DateUTC
2013-03-13 00:01:00,25.8,18.0,30.03,NW,304,0.0,0.0,72,0.00,,,0.00,WeatherCatV1.10B1784,2013-03-13 05:01:00,
2013-03-13 00:06:00,25.7,18.3,30.03,West,271,0.0,0.0,73,0.00,,,0.00,WeatherCatV1.10B1784,2013-03-13 05:06:00,
2013-03-13 00:11:00,25.6,18.2,30.03,WNW,288,0.0,0.0,73,0.00,,,0.00,WeatherCatV1.10B1784,2013-03-13 05:11:00,
2013-03-13 00:16:00,25.6,18.5,30.03,WNW,301,0.0,0.0,74,0.00,,,0.00,WeatherCatV1.10B1784,2013-03-13 05:16:00,
2013-03-13 00:21:00,25.7,18.6,30.03,WNW,294,0.0,0.0,74,0.00,,,0.00,WeatherCatV1.10B1784,2013-03-13 05:21:00,
2013-03-13 00:26:00,25.7,18.3,30.03,WNW,294,0.0,0.0,73,0.00,,,0.00,WeatherCatV1.10B1784,2013-03-13 05:26:00,
2013-03-13 00:31:00,25.7,18.3,30.03,NW,305,0.0,0.0,73,0.00,,,0.00,WeatherCatV1.10B1784,2013-03-13 05:31:00,
2013-03-13 00:36:00,25.8,18.7,30.03,WNW,296,0.0,0.0,74,0.00,,,0.00,WeatherCatV1.10B1784,2013-03-13 05:36:00,
2013-03-13 00:41:00,25.8,18.7,30.03,WNW,284,0.0,0.0,74,0.00,,,0.00,WeatherCatV1.10B1784,2013-03-13 05:41:00,
2013-03-13 00:46:00,25.8,19.0,30.03,WNW,296,0.0,0.0,75,0.00,,,0.00,WeatherCatV1.10B1784,2013-03-13 05:46:00,
2013-03-13 00:51:00,25.8,19.3,30.03,WSW,247,0.0,0.0,76,0.00,,,0.00,WeatherCatV1.10B1784,2013-03-13 05:51:00,
2013-03-13 00:56:00,25.8,19.3,30.03,NW,313,0.0,0.0,76,0.00,,,0.00,WeatherCatV1.10B1784,2013-03-13 05:56:00,
2013-03-13 01:01:00,25.8,19.3,30.03,WNW,294,0.0,0.0,76,0.00,,,0.00,WeatherCatV1.10B1784,2013-03-13 06:01:00,
2013-03-13 01:06:00,25.8,19.3,30.03,WNW,301,0.0,0.0,76,0.00,,,0.00,WeatherCatV1.10B1784,2013-03-13 06:06:00,
2013-03-13 01:11:00,25.8,19.3,30.03,NNW,333,0.0,0.0,76,0.00,,,0.00,WeatherCatV1.10B1784,2013-03-13 06:11:00,
2013-03-13 01:16:00,25.7,19.2,30.04,WNW,302,0.0,0.0,76,0.00,,,0.00,WeatherCatV1.10B1784,2013-03-13 06:16:00,
2013-03-13 01:21:00,25.7,19.2,30.04,NW,316,0.0,0.0,76,0.00,,,0.00,WeatherCatV1.10B1784,2013-03-13 06:21:00,
2013-03-13 01:26:00,25.6,19.4,30.04,West,277,0.0,0.0,77,0.00,,,0.00,WeatherCatV1.10B1784,2013-03-13 06:26:00,
2013-03-13 01:31:00,25.6,19.7,30.04,NW,304,0.0,0.0,78,0.00,,,0.00,WeatherCatV1.10B1784,2013-03-13 06:31:00,
2013-03-13 01:36:00,25.4,20.4,30.04,NW,309,0.0,0.0,81,0.00,,,0.00,WeatherCatV1.10B1784,2013-03-13 06:36:00,
2013-03-13 01:41:00,25.0,20.9,30.04,West,278,0.0,0.0,84,0.00,,,0.00,WeatherCatV1.10B1784,2013-03-13 06:41:00,
2013-03-13 01:46:00,24.8,20.9,30.04,WNW,295,0.0,0.0,85,0.00,,,0.00,WeatherCatV1.10B1784,2013-03-13 06:46:00,
2013-03-13 01:51:00,25.0,20.6,30.04,West,274,0.0,0.0,83,0.00,,,0.00,WeatherCatV1.10B1784,2013-03-13 06:51:00,
2013-03-13 01:56:00,25.1,20.1,30.04,West,280,0.0,0.0,81,0.00,,,0.00,WeatherCatV1.10B1784,2013-03-13 06:56:00,
2013-03-13 02:01:00,25.1,19.8,30.05,WSW,251,0.0,0.0,80,0.00,,,0.00,WeatherCatV1.10B1784,2013-03-13 07:01:00,
2013-03-13 02:06:00,25.1,19.5,30.05,WNW,301,0.0,0.0,79,0.00,,,0.00,WeatherCatV1.10B1784,2013-03-13 07:06:00,
2013-03-13 02:11:00,25.1,19.5,30.05,WNW,291,0.0,0.0,79,0.00,,,0.00,WeatherCatV1.10B1784,2013-03-13 07:11:00,
2013-03-13 02:16:00,25.1,19.2,30.05,NW,305,0.0,0.0,78,0.00,,,0.00,WeatherCatV1.10B1784,2013-03-13 07:16:00,
2013-03-13 02:21:00,25.0,19.1,30.05,WNW,284,0.0,0.0,78,0.00,,,0.00,WeatherCatV1.10B1784,2013-03-13 07:21:00,
2013-03-13 02:26:00,25.1,19.2,30.05,West,268,0.0,0.0,78,0.00,,,0.00,WeatherCatV1.10B1784,2013-03-13 07:26:00,
2013-03-13 02:31:00,25.1,19.2,30.05,WNW,301,0.0,0.0,78,0.00,,,0.00,WeatherCatV1.10B1784,2013-03-13 07:31:00,
2013-03-13 02:36:00,25.1,19.2,30.05,WNW,294,0.0,0.0,78,0.00,,,0.00,WeatherCatV1.10B1784,2013-03-13 07:36:00,
2013-03-13 02:41:00,25.3,19.4,30.05,WSW,250,0.0,0.0,78,0.00,,,0.00,WeatherCatV1.10B1784,2013-03-13 07:41:00,
2013-03-13 02:46:00,25.1,18.9,30.05,West,278,0.0,0.0,77,0.00,,,0.00,WeatherCatV1.10B1784,2013-03-13 07:46:00,
2013-03-13 02:51:00,25.0,18.8,30.05,WNW,289,0.0,0.0,77,0.00,,,0.00,WeatherCatV1.10B1784,2013-03-13 07:51:00,
2013-03-13 02:56:00,25.0,18.5,30.05,WSW,250,0.0,0.0,76,0.00,,,0.00,WeatherCatV1.10B1784,2013-03-13 07:56:00,
2013-03-13 03:01:00,24.8,18.3,30.05,West,275,0.0,0.0,76,0.00,,,0.00,WeatherCatV1.10B1784,2013-03-13 08:01:00,
2013-03-13 03:06:00,24.8,18.3,30.05,WNW,302,0.0,0.0,76,0.00,,,0.00,WeatherCatV1.10B1784,2013-03-13 08:06:00,
2013-03-13 03:11:00,25.0,18.5,30.05,NW,304,0.0,0.0,76,0.00,,,0.00,WeatherCatV1.10B1784,2013-03-13 08:11:00,
2013-03-13 03:16:00,25.0,18.2,30.06,WNW,289,0.0,0.0,75,0.00,,,0.00,WeatherCatV1.10B1784,2013-03-13 08:16:00,
2013-03-13 03:21:00,25.0,18.5,30.06,WNW,294,0.0,0.0,76,0.00,,,0.00,WeatherCatV1.10B1784,2013-03-13 08:21:00,
2013-03-13 03:26:00,24.8,18.3,30.06,WNW,284,0.0,0.0,76,0.00,,,0.00,WeatherCatV1.10B1784,2013-03-13 08:26:00,
2013-03-13 03:31:00,24.7,18.5,30.06,WNW,301,0.0,0.0,77,0.00,,,0.00,WeatherCatV1.10B1784,2013-03-13 08:31:00,
2013-03-13 03:36:00,24.5,18.3,30.06,WNW,296,0.0,0.0,77,0.00,,,0.00,WeatherCatV1.10B1784,2013-03-13 08:36:00,
2013-03-13 03:41:00,24.4,18.2,30.06,NW,318,0.0,0.0,77,0.00,,,0.00,WeatherCatV1.10B1784,2013-03-13 08:41:00,
2013-03-13 03:46:00,24.2,18.0,30.06,NW,313,0.0,0.0,77,0.00,,,0.00,WeatherCatV1.10B1784,2013-03-13 08:46:00,
2013-03-13 03:51:00,24.1,18.0,30.06,NW,308,0.0,0.0,77,0.00,,,0.00,WeatherCatV1.10B1784,2013-03-13 08:51:00,
2013-03-13 03:56:00,23.9,18.1,30.06,NW,306,0.0,0.0,78,0.00,,,0.00,WeatherCatV1.10B1784,2013-03-13 08:56:00,
2013-03-13 04:01:00,23.8,18.0,30.07,West,271,0.0,0.0,78,0.00,,,0.00,WeatherCatV1.10B1784,2013-03-13 09:01:00,
2013-03-13 04:06:00,23.6,17.8,30.07,WNW,294,0.0,0.0,78,0.00,,,0.00,WeatherCatV1.10B1784,2013-03-13 09:06:00,
2013-03-13 04:11:00,23.6,18.1,30.07,WNW,285,0.0,0.0,79,0.00,,,0.00,WeatherCatV1.10B1784,2013-03-13 09:11:00,
2013-03-13 04:16:00,23.5,17.7,30.07,WNW,302,0.0,0.0,78,0.00,,,0.00,WeatherCatV1.10B1784,2013-03-13 09:16:00,
2013-03-13 04:21:00,23.3,17.8,30.07,WNW,301,0.0,0.0,79,0.00,,,0.00,WeatherCatV1.10B1784,2013-03-13 09:21:00,
2013-03-13 04:26:00,23.3,17.8,30.07,WNW,299,0.0,0.0,79,0.00,,,0.00,WeatherCatV1.10B1784,2013-03-13 09:26:00,
2013-03-13 04:31:00,23.3,17.8,30.08,WNW,298,0.0,0.0,79,0.00,,,0.00,WeatherCatV1.10B1784,2013-03-13 09:31:00,
2013-03-13 04:36:00,23.0,17.5,30.08,NW,311,0.0,0.0,79,0.00,,,0.00,WeatherCatV1.10B1784,2013-03-13 09:36:00,
2013-03-13 04:41:00,22.9,17.4,30.08,West,271,0.0,0.0,79,0.00,,,0.00,WeatherCatV1.10B1784,2013-03-13 09:41:00,
2013-03-13 04:46:00,22.9,17.4,30.08,WNW,285,0.0,0.0,79,0.00,,,0.00,WeatherCatV1.10B1784,2013-03-13 09:46:00,
2013-03-13 04:51:00,22.9,17.4,30.08,NW,315,0.0,0.0,79,0.00,,,0.00,WeatherCatV1.10B1784,2013-03-13 09:51:00,
2013-03-13 04:56:00,22.9,17.4,30.08,NW,311,0.0,0.0,79,0.00,,,0.00,WeatherCatV1.10B1784,2013-03-13 09:56:00,
2013-03-13 05:01:00,22.7,17.2,30.09,NW,308,0.0,0.0,79,0.00,,,0.00,WeatherCatV1.10B1784,2013-03-13 10:01:00,
2013-03-13 05:06:00,22.7,17.2,30.09,NW,304,0.0,0.0,79,0.00,,,0.00,WeatherCatV1.10B1784,2013-03-13 10:06:00,
2013-03-13 05:11:00,22.7,17.2,30.09,West,272,0.0,0.0,79,0.00,,,0.00,WeatherCatV1.10B1784,2013-03-13 10:11:00,
2013-03-13 05:16:00,22.7,17.2,30.10,NW,311,0.0,0.0,79,0.00,,,0.00,WeatherCatV1.10B1784,2013-03-13 10:16:00,
2013-03-13 05:21:00,22.7,17.2,30.10,WNW,299,0.0,0.0,79,0.00,,,0.00,WeatherCatV1.10B1784,2013-03-13 10:21:00,
2013-03-13 05:26:00,22.7,17.2,30.10,WNW,282,0.0,0.0,79,0.00,,,0.00,WeatherCatV1.10B1784,2013-03-13 10:26:00,
2013-03-13 05:31:00,22.7,17.5,30.10,WNW,282,0.0,0.0,80,0.00,,,0.00,WeatherCatV1.10B1784,2013-03-13 10:31:00,
2013-03-13 05:36:00,22.5,17.3,30.10,WNW,295,0.0,0.0,80,0.00,,,0.00,WeatherCatV1.10B1784,2013-03-13 10:36:00,
2013-03-13 05:41:00,22.5,17.3,30.10,WNW,285,0.0,0.0,80,0.00,,,0.00,WeatherCatV1.10B1784,2013-03-13 10:41:00,
2013-03-13 05:46:00,22.5,17.3,30.11,West,264,0.0,0.0,80,0.00,,,0.00,WeatherCatV1.10B1784,2013-03-13 10:46:00,
2013-03-13 05:51:00,22.4,17.2,30.11,NW,308,0.0,0.0,80,0.00,,,0.00,WeatherCatV1.10B1784,2013-03-13 10:51:00,
2013-03-13 05:56:00,22.4,17.2,30.11,NW,312,0.0,0.0,80,0.00,,,0.00,WeatherCatV1.10B1784,2013-03-13 10:56:00,
2013-03-13 06:01:00,22.4,17.2,30.12,NW,313,0.0,0.0,80,0.00,,,0.00,WeatherCatV1.10B1784,2013-03-13 11:01:00,
2013-03-13 06:06:00,22.2,17.0,30.12,NW,318,0.0,0.0,80,0.00,,,0.00,WeatherCatV1.10B1784,2013-03-13 11:06:00,
2013-03-13 06:11:00,22.2,17.3,30.12,West,271,0.0,0.0,81,0.00,,,0.00,WeatherCatV1.10B1784,2013-03-13 11:11:00,
2013-03-13 06:16:00,22.2,17.3,30.12,NW,305,0.0,0.0,81,0.00,,,0.00,WeatherCatV1.10B1784,2013-03-13 11:16:00,
2013-03-13 06:21:00,22.1,17.2,30.12,WNW,298,0.0,0.0,81,0.00,,,0.00,WeatherCatV1.10B1784,2013-03-13 11:21:00,
2013-03-13 06:26:00,22.1,17.2,30.12,WNW,285,0.0,0.0,81,0.00,,,0.00,WeatherCatV1.10B1784,2013-03-13 11:26:00,
2013-03-13 06:31:00,22.2,17.3,30.13,WNW,292,0.0,0.0,81,0.00,,,0.00,WeatherCatV1.10B1784,2013-03-13 11:31:00,
2013-03-13 06:36:00,22.1,17.2,30.13,NW,306,0.0,0.0,81,0.00,,,0.00,WeatherCatV1.10B1784,2013-03-13 11:36:00,
2013-03-13 06:41:00,22.1,17.2,30.13,West,275,0.0,0.0,81,0.00,,,0.00,WeatherCatV1.10B1784,2013-03-13 11:41:00,
2013-03-13 06:46:00,21.9,17.0,30.13,NW,311,0.0,0.0,81,0.00,,,0.00,WeatherCatV1.10B1784,2013-03-13 11:46:00,
2013-03-13 06:51:00,21.9,17.0,30.13,WNW,299,0.0,0.0,81,0.00,,,0.00,WeatherCatV1.10B1784,2013-03-13 11:51:00,
2013-03-13 06:56:00,21.8,16.9,30.13,NW,305,0.0,0.0,81,0.00,,,0.00,WeatherCatV1.10B1784,2013-03-13 11:56:00,
2013-03-13 07:01:00,21.9,17.0,30.14,NW,315,0.0,0.0,81,0.00,,,0.00,WeatherCatV1.10B1784,2013-03-13 12:01:00,
2013-03-13 07:06:00,21.8,16.9,30.14,NW,315,0.0,0.0,81,0.00,,,0.00,WeatherCatV1.10B1784,2013-03-13 12:06:00,
2013-03-13 07:11:00,21.8,16.9,30.14,WNW,287,0.0,0.0,81,0.00,,,0.00,WeatherCatV1.10B1784,2013-03-13 12:11:00,
2013-03-13 07:16:00,21.8,16.9,30.14,WNW,295,0.0,0.0,81,0.00,,,0.00,WeatherCatV1.10B1784,2013-03-13 12:16:00,
2013-03-13 07:21:00,21.8,16.9,30.14,WNW,301,0.0,0.0,81,0.00,,,0.00,WeatherCatV1.10B1784,2013-03-13 12:21:00,
2013-03-13 07:26:00,21.8,17.2,30.14,WNW,299,0.0,0.0,82,0.00,,,0.00,WeatherCatV1.10B1784,2013-03-13 12:26:00,
2013-03-13 07:31:00,21.8,17.2,30.16,WNW,294,0.0,0.0,82,0.00,,,0.00,WeatherCatV1.10B1784,2013-03-13 12:31:00,
2013-03-13 07:36:00,21.8,16.9,30.16,WNW,294,0.0,0.0,81,0.00,,,0.00,WeatherCatV1.10B1784,2013-03-13 12:36:00,
2013-03-13 07:41:00,21.9,17.0,30.16,WNW,292,0.0,0.0,81,0.00,,,0.00,WeatherCatV1.10B1784,2013-03-13 12:41:00,
2013-03-13 07:46:00,21.9,17.0,30.16,NW,309,0.0,0.0,81,0.00,,,0.00,WeatherCatV1.10B1784,2013-03-13 12:46:00,
2013-03-13 07:51:00,22.1,17.2,30.16,West,271,0.0,0.0,81,0.00,,,0.00,WeatherCatV1.10B1784,2013-03-13 12:51:00,
2013-03-13 07:56:00,22.2,17.3,30.16,WNW,294,0.0,0.0,81,0.00,,,0.00,WeatherCatV1.10B1784,2013-03-13 12:56:00,
2013-03-13 08:01:00,22.2,17.3,30.17,NW,305,0.0,0.0,81,0.00,,,0.00,WeatherCatV1.10B1784,2013-03-13 13:01:00,
2013-03-13 08:06:00,22.2,17.3,30.17,NW,305,0.0,0.0,81,0.00,,,0.00,WeatherCatV1.10B1784,2013-03-13 13:06:00,
2013-03-13 08:11:00,22.4,17.5,30.17,West,267,0.0,0.0,81,0.00,,,0.00,WeatherCatV1.10B1784,2013-03-13 13:11:00,
2013-03-13 08:16:00,22.5,17.6,30.18,WNW,291,0.0,0.0,81,0.00,,,0.00,WeatherCatV1.10B1784,2013-03-13 13:16:00,
2013-03-13 08:21:00,22.7,17.8,30.18,WNW,289,0.0,0.0,81,0.00,,,0.00,WeatherCatV1.10B1784,2013-03-13 13:21:00,
2013-03-13 08:26:00,22.9,17.7,30.18,WNW,285,0.0,0.0,80,0.00,,,0.00,WeatherCatV1.10B1784,2013-03-13 13:26:00,
2013-03-13 08:31:00,22.9,17.7,30.19,NW,313,0.0,0.0,80,0.00,,,0.00,WeatherCatV1.10B1784,2013-03-13 13:31:00,
2013-03-13 08:36:00,22.9,17.4,30.19,West,281,0.0,0.0,79,0.00,,,0.00,WeatherCatV1.10B1784,2013-03-13 13:36:00,
2013-03-13 08:41:00,23.0,17.2,30.19,NNW,330,0.0,0.0,78,0.00,,,0.00,WeatherCatV1.10B1784,2013-03-13 13:41:00,
2013-03-13 08:46:00,23.2,17.4,30.19,NW,326,0.0,0.0,78,0.00,,,0.00,WeatherCatV1.10B1784,2013-03-13 13:46:00,
2013-03-13 08:51:00,23.3,17.5,30.19,West,280,0.0,0.0,78,0.00,,,0.00,WeatherCatV1.10B1784,2013-03-13 13:51:00,
2013-03-13 08:56:00,23.3,17.2,30.19,WNW,292,0.0,0.0,77,0.00,,,0.00,WeatherCatV1.10B1784,2013-03-13 13:56:00,
2013-03-13 09:01:00,23.5,17.4,30.20,NW,309,0.0,0.0,77,0.00,,,0.00,WeatherCatV1.10B1784,2013-03-13 14:01:00,
2013-03-13 09:06:00,23.5,17.1,30.20,NNW,333,0.0,0.0,76,0.00,,,0.00,WeatherCatV1.10B1784,2013-03-13 14:06:00,
2013-03-13 09:11:00,23.5,17.1,30.20,West,267,0.0,0.0,76,0.00,,,0.00,WeatherCatV1.10B1784,2013-03-13 14:11:00,
2013-03-13 09:16:00,23.8,17.4,30.21,WNW,298,0.0,0.0,76,0.00,,,0.00,WeatherCatV1.10B1784,2013-03-13 14:16:00,
2013-03-13 09:21:00,23.9,17.5,30.21,NW,304,0.0,0.0,76,0.00,,,0.00,WeatherCatV1.10B1784,2013-03-13 14:21:00,
2013-03-13 09:26:00,24.1,17.7,30.21,NNW,342,0.0,0.0,76,0.00,,,0.00,WeatherCatV1.10B1784,2013-03-13 14:26:00,
2013-03-13 09:31:00,24.4,17.6,30.21,NW,311,0.0,0.0,75,0.00,,,0.00,WeatherCatV1.10B1784,2013-03-13 14:31:00,
2013-03-13 09:36:00,24.5,17.7,30.21,NW,316,0.0,0.0,75,0.00,,,0.00,WeatherCatV1.10B1784,2013-03-13 14:36:00,
2013-03-13 09:41:00,24.5,17.7,30.21,WNW,282,0.0,0.0,75,0.00,,,0.00,WeatherCatV1.10B1784,2013-03-13 14:41:00,
2013-03-13 09:46:00,24.5,17.7,30.22,NW,305,0.0,0.0,75,0.00,,,0.00,WeatherCatV1.10B1784,2013-03-13 14:46:00,
2013-03-13 09:51:00,24.7,17.9,30.22,West,270,0.0,0.0,75,0.00,,,0.00,WeatherCatV1.10B1784,2013-03-13 14:51:00,
2013-03-13 09:56:00,24.8,17.7,30.22,WNW,282,0.0,0.0,74,0.00,,,0.00,WeatherCatV1.10B1784,2013-03-13 14:56:00,
2013-03-13 10:01:00,24.5,17.4,30.23,NW,309,0.0,0.0,74,0.00,,,0.00,WeatherCatV1.10B1784,2013-03-13 15:01:00,
2013-03-13 10:06:00,24.4,17.6,30.23,NW,319,0.0,0.0,75,0.00,,,0.00,WeatherCatV1.10B1784,2013-03-13 15:06:00,
2013-03-13 10:11:00,24.7,17.6,30.23,West,271,0.0,0.0,74,0.00,,,0.00,WeatherCatV1.10B1784,2013-03-13 15:11:00,
2013-03-13 10:16:00,24.7,17.0,30.23,North,350,0.0,0.0,72,0.00,,,0.00,WeatherCatV1.10B1784,2013-03-13 15:16:00,
2013-03-13 10:21:00,25.0,17.6,30.23,NW,313,0.0,0.0,73,0.00,,,0.00,WeatherCatV1.10B1784,2013-03-13 15:21:00,
2013-03-13 10:26:00,24.8,17.4,30.23,WNW,282,0.0,0.0,73,0.00,,,0.00,WeatherCatV1.10B1784,2013-03-13 15:26:00,
2013-03-13 10:31:00,24.8,17.1,30.24,NW,306,0.0,0.0,72,0.00,,,0.00,WeatherCatV1.10B1784,2013-03-13 15:31:00,
2013-03-13 10:36:00,25.7,17.6,30.24,NNW,330,0.0,0.0,71,0.00,,,0.00,WeatherCatV1.10B1784,2013-03-13 15:36:00,
2013-03-13 10:41:00,26.0,17.6,30.24,NNW,336,0.0,0.0,70,0.00,,,0.00,WeatherCatV1.10B1784,2013-03-13 15:41:00,
2013-03-13 10:46:00,25.8,17.1,30.24,NW,311,0.0,0.0,69,0.00,,,0.00,WeatherCatV1.10B1784,2013-03-13 15:46:00,
2013-03-13 10:51:00,26.1,17.3,30.24,NW,304,0.0,0.0,69,0.00,,,0.00,WeatherCatV1.10B1784,2013-03-13 15:51:00,
2013-03-13 10:56:00,26.4,17.6,30.24,NW,306,0.0,0.0,69,0.00,,,0.00,WeatherCatV1.10B1784,2013-03-13 15:56:00,
2013-03-13 11:01:00,26.0,17.6,30.25,NW,312,0.0,0.0,70,0.00,,,0.00,WeatherCatV1.10B1784,2013-03-13 16:01:00,
2013-03-13 11:06:00,26.4,17.6,30.25,NNW,330,0.0,0.0,69,0.00,,,0.00,WeatherCatV1.10B1784,2013-03-13 16:06:00,
2013-03-13 11:11:00,27.0,18.2,30.25,NW,313,0.0,0.0,69,0.00,,,0.00,WeatherCatV1.10B1784,2013-03-13 16:11:00,
2013-03-13 11:16:00,27.0,17.2,30.25,WNW,289,0.0,0.0,66,0.00,,,0.00,WeatherCatV1.10B1784,2013-03-13 16:16:00,
2013-03-13 11:21:00,27.6,18.1,30.25,WNW,288,0.0,0.0,67,0.00,,,0.00,WeatherCatV1.10B1784,2013-03-13 16:21:00,
2013-03-13 11:26:00,27.6,17.8,30.25,NW,304,0.0,0.0,66,0.00,,,0.00,WeatherCatV1.10B1784,2013-03-13 16:26:00,
2013-03-13 11:31:00,27.9,17.7,30.25,WNW,299,0.0,0.0,65,0.00,,,0.00,WeatherCatV1.10B1784,2013-03-13 16:31:00,
2013-03-13 11:36:00,27.9,18.7,30.25,NNW,344,0.0,0.0,68,0.00,,,0.00,WeatherCatV1.10B1784,2013-03-13 16:36:00,
2013-03-13 11:41:00,27.8,17.6,30.25,NW,305,0.0,0.0,65,0.00,,,0.00,WeatherCatV1.10B1784,2013-03-13 16:41:00,
2013-03-13 11:46:00,27.8,17.9,30.26,West,277,0.0,0.0,66,0.00,,,0.00,WeatherCatV1.10B1784,2013-03-13 16:46:00,
2013-03-13 11:51:00,28.7,18.8,30.26,WNW,299,0.0,0.0,66,0.00,,,0.00,WeatherCatV1.10B1784,2013-03-13 16:51:00,
2013-03-13 11:56:00,28.8,18.5,30.26,North,352,0.0,0.0,65,0.00,,,0.00,WeatherCatV1.10B1784,2013-03-13 16:56:00,
2013-03-13 12:01:00,29.1,19.2,30.26,NW,316,0.0,0.0,66,0.00,,,0.00,WeatherCatV1.10B1784,2013-03-13 17:01:00,
2013-03-13 12:06:00,29.3,19.0,30.26,NW,305,0.0,0.0,65,0.00,,,0.00,WeatherCatV1.10B1784,2013-03-13 17:06:00,
2013-03-13 12:11:00,29.7,18.7,30.26,NW,308,0.0,0.0,63,0.00,,,0.00,WeatherCatV1.10B1784,2013-03-13 17:11:00,
2013-03-13 12:16:00,30.1,19.0,30.26,NW,309,0.0,0.0,63,0.00,,,0.00,WeatherCatV1.10B1784,2013-03-13 17:16:00,
2013-03-13 12:21:00,30.0,18.2,30.26,NW,323,0.0,0.0,61,0.00,,,0.00,WeatherCatV1.10B1784,2013-03-13 17:21:00,
2013-03-13 12:26:00,30.1,18.3,30.26,NW,309,0.0,0.0,61,0.00,,,0.00,WeatherCatV1.10B1784,2013-03-13 17:26:00,
2013-03-13 12:31:00,30.1,18.7,30.27,NNW,346,0.0,0.0,62,0.00,,,0.00,WeatherCatV1.10B1784,2013-03-13 17:31:00,
2013-03-13 12:36:00,30.4,18.6,30.27,NNW,332,0.0,0.0,61,0.00,,,0.00,WeatherCatV1.10B1784,2013-03-13 17:36:00,
2013-03-13 12:41:00,30.4,18.2,30.27,NW,309,0.0,0.0,60,0.00,,,0.00,WeatherCatV1.10B1784,2013-03-13 17:41:00,
2013-03-13 12:46:00,30.7,17.7,30.27,NW,305,0.0,0.0,58,0.00,,,0.00,WeatherCatV1.10B1784,2013-03-13 17:46:00,
2013-03-13 12:51:00,31.0,18.0,30.27,NNW,339,0.0,0.0,58,0.00,,,0.00,WeatherCatV1.10B1784,2013-03-13 17:51:00,
2013-03-13 12:56:00,31.3,18.7,30.27,West,270,0.0,0.0,59,0.00,,,0.00,WeatherCatV1.10B1784,2013-03-13 17:56:00,
2013-03-13 13:01:00,31.3,18.3,30.27,NW,319,0.0,0.0,58,0.00,,,0.00,WeatherCatV1.10B1784,2013-03-13 18:01:00,
2013-03-13 13:06:00,31.5,19.2,30.27,NW,323,0.0,0.0,60,0.00,,,0.00,WeatherCatV1.10B1784,2013-03-13 18:06:00,
2013-03-13 13:11:00,32.4,19.7,30.27,WNW,301,0.0,0.0,59,0.00,,,0.00,WeatherCatV1.10B1784,2013-03-13 18:11:00,
2013-03-13 13:16:00,32.5,18.6,30.27,NW,320,0.0,0.0,56,0.00,,,0.00,WeatherCatV1.10B1784,2013-03-13 18:16:00,
2013-03-13 13:21:00,32.7,19.2,30.27,NW,319,0.0,0.0,57,0.00,,,0.00,WeatherCatV1.10B1784,2013-03-13 18:21:00,
2013-03-13 13:26:00,32.5,19.4,30.27,NW,313,0.0,0.0,58,0.00,,,0.00,WeatherCatV1.10B1784,2013-03-13 18:26:00,
2013-03-13 13:31:00,32.2,18.7,30.27,West,281,0.0,0.0,57,0.00,,,0.00,WeatherCatV1.10B1784,2013-03-13 18:31:00,
2013-03-13 13:36:00,32.7,18.3,30.27,WNW,302,0.0,0.0,55,0.00,,,0.00,WeatherCatV1.10B1784,2013-03-13 18:36:00,
2013-03-13 13:41:00,33.1,18.7,30.27,NW,313,0.0,0.0,55,0.00,,,0.00,WeatherCatV1.10B1784,2013-03-13 18:41:00,
2013-03-13 13:46:00,33.5,20.3,30.26,WSW,253,0.0,0.0,58,0.00,,,0.00,WeatherCatV1.10B1784,2013-03-13 18:46:00,
2013-03-13 13:51:00,34.1,20.9,30.26,West,263,0.0,0.0,58,0.00,,,0.00,WeatherCatV1.10B1784,2013-03-13 18:51:00,
2013-03-13 13:56:00,33.8,19.4,30.26,NW,311,0.0,0.0,55,0.00,,,0.00,WeatherCatV1.10B1784,2013-03-13 18:56:00,
2013-03-13 14:01:00,33.1,17.9,30.26,WNW,289,0.0,0.0,53,0.00,,,0.00,WeatherCatV1.10B1784,2013-03-13 19:01:00,
2013-03-13 14:06:00,33.8,18.5,30.26,West,271,0.0,0.0,53,0.00,,,0.00,WeatherCatV1.10B1784,2013-03-13 19:06:00,
2013-03-13 14:11:00,33.7,17.5,30.26,NW,305,0.0,0.0,51,0.00,,,0.00,WeatherCatV1.10B1784,2013-03-13 19:11:00,
2013-03-13 14:16:00,34.1,18.8,30.26,WSW,256,0.0,0.0,53,0.00,,,0.00,WeatherCatV1.10B1784,2013-03-13 19:16:00,
2013-03-13 14:21:00,34.1,17.9,30.26,WNW,299,0.0,0.0,51,0.00,,,0.00,WeatherCatV1.10B1784,2013-03-13 19:21:00,
2013-03-13 14:26:00,33.8,16.7,30.26,WNW,285,0.0,0.0,49,0.00,,,0.00,WeatherCatV1.10B1784,2013-03-13 19:26:00,
2013-03-13 14:31:00,33.8,17.2,30.26,WSW,240,0.0,0.0,50,0.00,,,0.00,WeatherCatV1.10B1784,2013-03-13 19:31:00,
2013-03-13 14:36:00,34.6,19.2,30.26,West,267,0.0,0.0,53,0.00,,,0.00,WeatherCatV1.10B1784,2013-03-13 19:36:00,
2013-03-13 14:41:00,34.4,17.7,30.26,WNW,285,0.0,0.0,50,0.00,,,0.00,WeatherCatV1.10B1784,2013-03-13 19:41:00,
2013-03-13 14:46:00,34.6,17.9,30.26,West,264,0.0,0.0,50,0.00,,,0.00,WeatherCatV1.10B1784,2013-03-13 19:46:00,
2013-03-13 14:51:00,34.7,17.0,30.26,NW,308,0.0,0.0,48,0.00,,,0.00,WeatherCatV1.10B1784,2013-03-13 19:51:00,
2013-03-13 14:56:00,34.4,17.2,30.26,West,281,0.0,0.0,49,0.00,,,0.00,WeatherCatV1.10B1784,2013-03-13 19:56:00,
2013-03-13 15:01:00,34.3,14.2,30.26,West,274,0.0,0.0,43,0.00,,,0.00,WeatherCatV1.10B1784,2013-03-13 20:01:00,
2013-03-13 15:06:00,34.3,16.7,30.26,NW,319,0.0,0.0,48,0.00,,,0.00,WeatherCatV1.10B1784,2013-03-13 20:06:00,
2013-03-13 15:11:00,34.6,16.9,30.26,NW,326,0.0,0.0,48,0.00,,,0.00,WeatherCatV1.10B1784,2013-03-13 20:11:00,
2013-03-13 15:16:00,34.1,15.5,30.27,NNW,336,0.0,0.0,46,0.00,,,0.00,WeatherCatV1.10B1784,2013-03-13 20:16:00,
2013-03-13 15:21:00,34.3,16.2,30.27,WNW,282,0.0,0.0,47,0.00,,,0.00,WeatherCatV1.10B1784,2013-03-13 20:21:00,
2013-03-13 15:26:00,34.3,16.7,30.27,NW,316,0.0,0.0,48,0.00,,,0.00,WeatherCatV1.10B1784,2013-03-13 20:26:00,
2013-03-13 15:31:00,34.0,15.9,30.26,WNW,289,0.0,0.0,47,0.00,,,0.00,WeatherCatV1.10B1784,2013-03-13 20:31:00,
2013-03-13 15:36:00,34.1,14.0,30.26,WNW,301,0.0,0.0,43,0.00,,,0.00,WeatherCatV1.10B1784,2013-03-13 20:36:00,
2013-03-13 15:41:00,34.3,15.7,30.26,North,350,0.0,0.0,46,0.00,,,0.00,WeatherCatV1.10B1784,2013-03-13 20:41:00,
2013-03-13 15:46:00,34.6,14.4,30.26,WNW,296,0.0,0.0,43,0.00,,,0.00,WeatherCatV1.10B1784,2013-03-13 20:46:00,
2013-03-13 15:51:00,34.4,14.2,30.26,NW,312,0.0,0.0,43,0.00,,,0.00,WeatherCatV1.10B1784,2013-03-13 20:51:00,
2013-03-13 15:56:00,34.6,15.5,30.26,NW,315,0.0,0.0,45,0.00,,,0.00,WeatherCatV1.10B1784,2013-03-13 20:56:00,
2013-03-13 16:01:00,34.7,15.0,30.26,NNW,328,0.0,0.0,44,0.00,,,0.00,WeatherCatV1.10B1784,2013-03-13 21:01:00,
2013-03-13 16:06:00,35.2,16.5,30.26,WNW,282,0.0,0.0,46,0.00,,,0.00,WeatherCatV1.10B1784,2013-03-13 21:06:00,
2013-03-13 16:11:00,34.9,15.2,30.26,NW,316,0.0,0.0,44,0.00,,,0.00,WeatherCatV1.10B1784,2013-03-13 21:11:00,
2013-03-13 16:16:00,34.9,15.7,30.27,WNW,295,0.0,0.0,45,0.00,,,0.00,WeatherCatV1.10B1784,2013-03-13 21:16:00,
2013-03-13 16:21:00,35.0,16.3,30.27,WNW,282,0.0,0.0,46,0.00,,,0.00,WeatherCatV1.10B1784,2013-03-13 21:21:00,
2013-03-13 16:26:00,35.0,13.1,30.27,West,267,0.0,0.0,40,0.00,,,0.00,WeatherCatV1.10B1784,2013-03-13 21:26:00,
2013-03-13 16:31:00,34.6,12.8,30.26,NW,305,0.0,0.0,40,0.00,,,0.00,WeatherCatV1.10B1784,2013-03-13 21:31:00,
2013-03-13 16:36:00,34.4,13.7,30.26,NW,311,0.0,0.0,42,0.00,,,0.00,WeatherCatV1.10B1784,2013-03-13 21:36:00,
2013-03-13 16:41:00,34.9,15.7,30.26,WNW,288,0.0,0.0,45,0.00,,,0.00,WeatherCatV1.10B1784,2013-03-13 21:41:00,
2013-03-13 16:46:00,34.7,14.5,30.27,NW,326,0.0,0.0,43,0.00,,,0.00,WeatherCatV1.10B1784,2013-03-13 21:46:00,
2013-03-13 16:51:00,34.7,16.1,30.27,West,261,0.0,0.0,46,0.00,,,0.00,WeatherCatV1.10B1784,2013-03-13 21:51:00,
2013-03-13 16:56:00,34.6,15.5,30.27,NW,319,0.0,0.0,45,0.00,,,0.00,WeatherCatV1.10B1784,2013-03-13 21:56:00,
2013-03-13 17:01:00,34.4,15.8,30.27,WNW,296,0.0,0.0,46,0.00,,,0.00,WeatherCatV1.10B1784,2013-03-13 22:01:00,
2013-03-13 17:06:00,34.7,15.0,30.27,NNW,337,0.0,0.0,44,0.00,,,0.00,WeatherCatV1.10B1784,2013-03-13 22:06:00,
2013-03-13 17:11:00,34.7,15.0,30.27,WNW,302,0.0,0.0,44,0.00,,,0.00,WeatherCatV1.10B1784,2013-03-13 22:11:00,
2013-03-13 17:16:00,34.3,14.2,30.27,WNW,296,0.0,0.0,43,0.00,,,0.00,WeatherCatV1.10B1784,2013-03-13 22:16:00,
2013-03-13 17:21:00,34.3,14.2,30.27,West,272,0.0,0.0,43,0.00,,,0.00,WeatherCatV1.10B1784,2013-03-13 22:21:00,
2013-03-13 17:26:00,34.4,15.3,30.27,West,281,0.0,0.0,45,0.00,,,0.00,WeatherCatV1.10B1784,2013-03-13 22:26:00,
2013-03-13 17:31:00,34.4,16.3,30.27,NW,311,0.0,0.0,47,0.00,,,0.00,WeatherCatV1.10B1784,2013-03-13 22:31:00,
2013-03-13 17:36:00,34.3,15.2,30.27,NW,318,0.0,0.0,45,0.00,,,0.00,WeatherCatV1.10B1784,2013-03-13 22:36:00,
2013-03-13 17:41:00,34.1,15.5,30.27,NW,308,0.0,0.0,46,0.00,,,0.00,WeatherCatV1.10B1784,2013-03-13 22:41:00,
2013-03-13 17:46:00,34.1,15.5,30.27,NW,311,0.0,0.0,46,0.00,,,0.00,WeatherCatV1.10B1784,2013-03-13 22:46:00,
2013-03-13 17:51:00,34.0,15.9,30.27,NW,315,0.0,0.0,47,0.00,,,0.00,WeatherCatV1.10B1784,2013-03-13 22:51:00,
2013-03-13 17:56:00,34.0,16.4,30.27,WNW,296,0.0,0.0,48,0.00,,,0.00,WeatherCatV1.10B1784,2013-03-13 22:56:00,
2013-03-13 18:01:00,33.7,15.6,30.28,NW,311,0.0,0.0,47,0.00,,,0.00,WeatherCatV1.10B1784,2013-03-13 23:01:00,
2013-03-13 18:06:00,33.7,16.1,30.28,WNW,289,0.0,0.0,48,0.00,,,0.00,WeatherCatV1.10B1784,2013-03-13 23:06:00,
2013-03-13 18:11:00,33.5,16.4,30.28,WNW,282,0.0,0.0,49,0.00,,,0.00,WeatherCatV1.10B1784,2013-03-13 23:11:00,
2013-03-13 18:16:00,33.5,16.9,30.28,WNW,299,0.0,0.0,50,0.00,,,0.00,WeatherCatV1.10B1784,2013-03-13 23:16:00,
2013-03-13 18:21:00,33.4,16.8,30.28,West,280,0.0,0.0,50,0.00,,,0.00,WeatherCatV1.10B1784,2013-03-13 23:21:00,
2013-03-13 18:26:00,33.4,16.8,30.28,West,281,0.0,0.0,50,0.00,,,0.00,WeatherCatV1.10B1784,2013-03-13 23:26:00,
2013-03-13 18:31:00,33.2,16.6,30.28,WNW,289,0.0,0.0,50,0.00,,,0.00,WeatherCatV1.10B1784,2013-03-13 23:31:00,
2013-03-13 18:36:00,32.9,15.9,30.28,WNW,292,0.0,0.0,49,0.00,,,0.00,WeatherCatV1.10B1784,2013-03-13 23:36:00,
2013-03-13 18:41:00,32.8,16.2,30.28,WNW,299,0.0,0.0,50,0.00,,,0.00,WeatherCatV1.10B1784,2013-03-13 23:41:00,
2013-03-13 18:46:00,32.8,16.2,30.28,WNW,298,0.0,0.0,50,0.00,,,0.00,WeatherCatV1.10B1784,2013-03-13 23:46:00,
2013-03-13 18:51:00,32.5,16.9,30.28,West,272,0.0,0.0,52,0.00,,,0.00,WeatherCatV1.10B1784,2013-03-13 23:51:00,
2013-03-13 18:56:00,32.4,16.8,30.28,WNW,291,0.0,0.0,52,0.00,,,0.00,WeatherCatV1.10B1784,2013-03-13 23:56:00,
2013-03-13 19:01:00,32.2,17.4,30.28,WNW,294,0.0,0.0,54,0.00,,,0.00,WeatherCatV1.10B1784,2013-03-14 00:01:00,
2013-03-13 19:06:00,32.1,17.4,30.28,WNW,284,0.0,0.0,54,0.00,,,0.00,WeatherCatV1.10B1784,2013-03-14 00:06:00,
2013-03-13 19:11:00,31.8,16.6,30.28,WNW,285,0.0,0.0,53,0.00,,,0.00,WeatherCatV1.10B1784,2013-03-14 00:11:00,
2013-03-13 19:16:00,31.8,16.6,30.28,West,274,0.0,0.0,53,0.00,,,0.00,WeatherCatV1.10B1784,2013-03-14 00:16:00,
2013-03-13 19:21:00,31.6,16.9,30.28,West,272,0.0,0.0,54,0.00,,,0.00,WeatherCatV1.10B1784,2013-03-14 00:21:00,
2013-03-13 19:26:00,31.3,16.6,30.28,WNW,292,0.0,0.0,54,0.00,,,0.00,WeatherCatV1.10B1784,2013-03-14 00:26:00,
2013-03-13 19:31:00,31.2,16.5,30.28,WNW,289,0.0,0.0,54,0.00,,,0.00,WeatherCatV1.10B1784,2013-03-14 00:31:00,
2013-03-13 19:36:00,31.2,16.9,30.28,WNW,291,0.0,0.0,55,0.00,,,0.00,WeatherCatV1.10B1784,2013-03-14 00:36:00,
2013-03-13 19:41:00,31.0,17.2,30.28,West,278,0.0,0.0,56,0.00,,,0.00,WeatherCatV1.10B1784,2013-03-14 00:41:00,
2013-03-13 19:46:00,30.9,17.5,30.28,West,274,0.0,0.0,57,0.00,,,0.00,WeatherCatV1.10B1784,2013-03-14 00:46:00,
2013-03-13 19:51:00,30.7,17.7,30.28,West,274,0.0,0.0,58,0.00,,,0.00,WeatherCatV1.10B1784,2013-03-14 00:51:00,
2013-03-13 19:56:00,30.4,17.4,30.28,WNW,282,0.0,0.0,58,0.00,,,0.00,WeatherCatV1.10B1784,2013-03-14 00:56:00,
2013-03-13 20:01:00,30.3,17.3,30.28,WNW,282,0.0,0.0,58,0.00,,,0.00,WeatherCatV1.10B1784,2013-03-14 01:01:00,
2013-03-13 20:06:00,30.1,17.5,30.28,West,270,0.0,0.0,59,0.00,,,0.00,WeatherCatV1.10B1784,2013-03-14 01:06:00,
2013-03-13 20:11:00,29.8,17.6,30.28,West,264,0.0,0.0,60,0.00,,,0.00,WeatherCatV1.10B1784,2013-03-14 01:11:00,
2013-03-13 20:16:00,29.5,17.3,30.28,West,263,0.0,0.0,60,0.00,,,0.00,WeatherCatV1.10B1784,2013-03-14 01:16:00,
2013-03-13 20:21:00,29.3,17.5,30.28,West,263,0.0,0.0,61,0.00,,,0.00,WeatherCatV1.10B1784,2013-03-14 01:21:00,
2013-03-13 20:26:00,29.1,17.7,30.28,West,263,0.0,0.0,62,0.00,,,0.00,WeatherCatV1.10B1784,2013-03-14 01:26:00,
2013-03-13 20:31:00,29.0,17.6,30.28,West,263,0.0,0.0,62,0.00,,,0.00,WeatherCatV1.10B1784,2013-03-14 01:31:00,
2013-03-13 20:36:00,28.8,17.4,30.28,West,260,0.0,0.0,62,0.00,,,0.00,WeatherCatV1.10B1784,2013-03-14 01:36:00,
2013-03-13 20:41:00,28.7,17.4,30.28,West,261,0.0,0.0,62,0.00,,,0.00,WeatherCatV1.10B1784,2013-03-14 01:41:00,
2013-03-13 20:46:00,28.7,17.7,30.29,WSW,257,0.0,0.0,63,0.00,,,0.00,WeatherCatV1.10B1784,2013-03-14 01:46:00,
2013-03-13 20:51:00,28.8,18.2,30.29,WSW,256,0.0,0.0,64,0.00,,,0.00,WeatherCatV1.10B1784,2013-03-14 01:51:00,
2013-03-13 20:56:00,28.7,18.4,30.29,West,261,0.0,0.0,65,0.00,,,0.00,WeatherCatV1.10B1784,2013-03-14 01:56:00,
2013-03-13 21:01:00,28.7,18.8,30.29,West,260,0.0,0.0,66,0.00,,,0.00,WeatherCatV1.10B1784,2013-03-14 02:01:00,
2013-03-13 21:06:00,28.7,18.8,30.29,West,263,0.0,0.0,66,0.00,,,0.00,WeatherCatV1.10B1784,2013-03-14 02:06:00,
2013-03-13 21:11:00,28.5,19.0,30.29,WSW,258,0.0,0.0,67,0.00,,,0.00,WeatherCatV1.10B1784,2013-03-14 02:11:00,
2013-03-13 21:16:00,28.4,18.9,30.29,WSW,257,0.0,0.0,67,0.00,,,0.00,WeatherCatV1.10B1784,2013-03-14 02:16:00,
2013-03-13 21:21:00,28.4,19.2,30.29,WSW,257,0.0,0.0,68,0.00,,,0.00,WeatherCatV1.10B1784,2013-03-14 02:21:00,
2013-03-13 21:26:00,28.2,19.0,30.29,WSW,256,0.0,0.0,68,0.00,,,0.00,WeatherCatV1.10B1784,2013-03-14 02:26:00,
2013-03-13 21:31:00,28.2,19.0,30.29,West,261,0.0,0.0,68,0.00,,,0.00,WeatherCatV1.10B1784,2013-03-14 02:31:00,
2013-03-13 21:36:00,28.2,19.0,30.29,WSW,241,0.0,0.0,68,0.00,,,0.00,WeatherCatV1.10B1784,2013-03-14 02:36:00,
2013-03-13 21:41:00,28.2,19.0,30.29,WSW,257,0.0,0.0,68,0.00,,,0.00,WeatherCatV1.10B1784,2013-03-14 02:41:00,
2013-03-13 21:46:00,28.2,19.0,30.29,WSW,257,0.0,0.0,68,0.00,,,0.00,WeatherCatV1.10B1784,2013-03-14 02:46:00,
2013-03-13 21:51:00,28.1,18.9,30.29,WSW,257,0.0,0.0,68,0.00,,,0.00,WeatherCatV1.10B1784,2013-03-14 02:51:00,
2013-03-13 21:56:00,27.9,18.7,30.29,WSW,257,0.0,0.0,68,0.00,,,0.00,WeatherCatV1.10B1784,2013-03-14 02:56:00,
2013-03-13 22:01:00,27.8,19.0,30.28,WSW,257,0.0,0.0,69,0.00,,,0.00,WeatherCatV1.10B1784,2013-03-14 03:01:00,
2013-03-13 22:06:00,27.6,18.8,30.28,WSW,257,0.0,0.0,69,0.00,,,0.00,WeatherCatV1.10B1784,2013-03-14 03:06:00,
2013-03-13 22:11:00,27.5,18.7,30.28,WSW,257,0.0,0.0,69,0.00,,,0.00,WeatherCatV1.10B1784,2013-03-14 03:11:00,
2013-03-13 22:16:00,27.5,18.7,30.28,WSW,257,0.0,0.0,69,0.00,,,0.00,WeatherCatV1.10B1784,2013-03-14 03:16:00,
2013-03-13 22:21:00,27.2,18.7,30.28,WSW,257,0.0,0.0,70,0.00,,,0.00,WeatherCatV1.10B1784,2013-03-14 03:21:00,
2013-03-13 22:26:00,27.0,18.5,30.28,WSW,257,0.0,0.0,70,0.00,,,0.00,WeatherCatV1.10B1784,2013-03-14 03:26:00,
2013-03-13 22:31:00,26.9,18.4,30.28,WSW,257,0.0,0.0,70,0.00,,,0.00,WeatherCatV1.10B1784,2013-03-14 03:31:00,
2013-03-13 22:36:00,26.6,18.5,30.28,WSW,257,0.0,0.0,71,0.00,,,0.00,WeatherCatV1.10B1784,2013-03-14 03:36:00,
2013-03-13 22:41:00,26.4,18.3,30.28,WSW,257,0.0,0.0,71,0.00,,,0.00,WeatherCatV1.10B1784,2013-03-14 03:41:00,
2013-03-13 22:46:00,26.3,18.5,30.29,WSW,257,0.0,0.0,72,0.00,,,0.00,WeatherCatV1.10B1784,2013-03-14 03:46:00,
2013-03-13 22:51:00,26.1,18.3,30.29,WSW,257,0.0,0.0,72,0.00,,,0.00,WeatherCatV1.10B1784,2013-03-14 03:51:00,
2013-03-13 22:56:00,26.1,18.3,30.29,WSW,257,0.0,0.0,72,0.00,,,0.00,WeatherCatV1.10B1784,2013-03-14 03:56:00,
2013-03-13 23:00:00,26.0,18.2,30.29,WSW,257,0.0,0.0,72,0.00,,,0.00,WeatherCatV1.10B1784,2013-03-14 04:00:00,
2013-03-13 23:01:00,26.0,18.2,30.29,WSW,257,0.0,0.0,72,0.00,,,0.00,WeatherCatV1.10B1784,2013-03-14 04:01:00,
2013-03-13 23:06:00,25.8,18.4,30.29,WSW,257,0.0,0.0,73,0.00,,,0.00,WeatherCatV1.10B1784,2013-03-14 04:06:00,
2013-03-13 23:11:00,25.7,18.3,30.29,WSW,257,0.0,0.0,73,0.00,,,0.00,WeatherCatV1.10B1784,2013-03-14 04:11:00,
2013-03-13 23:16:00,25.6,18.2,30.28,WSW,257,0.0,0.0,73,0.00,,,0.00,WeatherCatV1.10B1784,2013-03-14 04:16:00,
2013-03-13 23:21:00,25.6,18.2,30.28,WSW,257,0.0,0.0,73,0.00,,,0.00,WeatherCatV1.10B1784,2013-03-14 04:21:00,
2013-03-13 23:26:00,25.4,18.0,30.28,WSW,257,0.0,0.0,73,0.00,,,0.00,WeatherCatV1.10B1784,2013-03-14 04:26:00,
2013-03-13 23:31:00,25.3,18.2,30.28,WSW,257,0.0,0.0,74,0.00,,,0.00,WeatherCatV1.10B1784,2013-03-14 04:31:00,
2013-03-13 23:36:00,25.1,18.0,30.28,WSW,257,0.0,0.0,74,0.00,,,0.00,WeatherCatV1.10B1784,2013-03-14 04:36:00,
2013-03-13 23:41:00,25.0,17.9,30.28,WSW,257,0.0,0.0,74,0.00,,,0.00,WeatherCatV1.10B1784,2013-03-14 04:41:00,
2013-03-13 23:46:00,24.8,17.7,30.28,WSW,257,0.0,0.0,74,0.00,,,0.00,WeatherCatV1.10B1784,2013-03-14 04:46:00,
2013-03-13 23:51:00,24.5,17.7,30.28,WSW,257,0.0,0.0,75,0.00,,,0.00,WeatherCatV1.10B1784,2013-03-14 04:51:00,
2013-03-13 23:56:00,24.4,17.9,30.28,WSW,256,0.0,0.0,76,0.00,,,0.00,WeatherCatV1.10B1784,2013-03-14 04:56:00,